CZ-3B R/B, 62486

Orbit data source: Space-Track

CZ-3B R/B, 62486 is space debris in HEO originally from a launch on Mon, 06 Jan 2025 UTC launched from the Xichang Space Center, China (XSC). Debris objects in space refer to the collection of defunct objects orbiting the Earth. Examples of debris include non-operational satellites, rocket bodies, and fragments generated from explosions, collisions, or faulty payload assembly.

Loading next visibility...
Identifier
62486, 2025-002B
Orbit
HEO
Country
Flag of CNCN / PRC
Related business
Manufacturer
CALT
Mission
Spacecraft
Bus & Motor
CZ-3A STAGE 3, Unknown motor
Mass
~2,800 kg wet, ~2,800 kg dry
Launch date (UTC)
2025-01-06 (1 year ago)
Launch vehicle
Unknown
Launch site
Xichang Space Center, China (XSC)
Object type
Payload
Rocket body
Debris
Shape & HBR
Cyl + 1 Nozzle, 3.3 m
Radar Cross Section
32.704 m², Large (>1 m²)

Expand to show TLE details & history
Last TLE update: 11 hours ago

TLE from 11 hours ago
0 CZ-3B R/B
1 62486U 25002B   26119.99953720  .00543486  17207-6  62799-3 0  9997
2 62486  28.4408 122.9829 5781386 276.7368  24.2301  4.52581353  8943
Epoch: 2026-04-29T23:59Z
TLE epoch observation values (Epoch: 2026-04-29T23:59:20.014Z)
Latitude
-0.00001°
Longitude
-94.79526°
Altitude
3,244.741 km
Speed
7.552 km/s
True Right ascension
08h 11m 57s
True Declination
0° 00' 00"
Sunlit
Object was in daylight at epoch
Visualization orbit readout
Latitude
Unknown
Longitude
Unknown
Altitude
Unknown
Speed
Unknown
Apparent Right ascension
Unknown
Apparent Declination
Unknown
Sunlit
N/A
Visualization observer readout
Local Sidereal Time
18:35:55
Azimuth
Unknown
Elevation
Unknown
Doppler factor
Unknown
Orbital elements
Apogee altitude
17,991.382 km
Perigee altitude
136.221 km
Semi-major axis
15,441.938 km
Eccentricity
0.57814
Inclination
28.4408°
RAAN
122.9829°
Arg. of periapsis
276.7368°
True anomaly
83.27278°
Mean anomaly
24.2301°
Eccentric anomaly
49.36935°
Mean motion
1.13107 °/min
Orbital period
318.28 mins
BSTAR
0.00062799
Loading maneuver chart data...
Computing Atmospheric mass density...
Loading historical data...
Loading historical data...
Loading historical data...
Loading historical data...
Loading historical data...
Loading historical data...
Loading historical data...
Other satellites on launch #2 in the year 2025 (2025-01-06 UTC)

Documentation

Showing up to 5 results
|